Tracking 19247 objects as of 25-Sep-2018
HD Live streaming from Space Station
objects crossing your sky now

FENGYUN 1C DEB

Track FENGYUN 1C DEB now!
10-day predictions


NORAD ID: 37428
Int'l Code: 1999-025EGW
Perigee: 799.7 km
Apogee: 910.4 km
Inclination: 97.7 °
Period: 101.9 minutes
Semi major axis: 7226 km
RCS: 0.0129 m2 (small)
Launch date: May 10, 1999
Source: People's Republic of China (PRC)
Launch site: Taiyaun Space Center, China (TSC)

Note: This is SATELLITE DEBRIS
aabbcc
Your satellite tracking list
Your tracking list is empty




NASA's NSSDC Master Catalog

Two Line Element Set (TLE):
1 37428U 99025EGW 18266.68071476 +.00000846 +00000-0 +45696-3 0  9992
2 37428 097.7368 061.9976 0076537 330.4722 029.2141 14.13356118260340
Source of the keplerian elements: AFSPC